Location: ?astrovice
(49.6513°N, 14.9287°E)
Time: 12:43:53
(UTC+00:00)

BEESAT - Visible Passes

Search period start: 23 October 2021 00:00
Search period end: 02 November 2021 00:00
Orbit: 699 x 709 km, 98.6° (Epoch: 22 October)

Date Brightness Start Highest point End Pass type
(mag) Time Alt. Az. Time Alt. Az. Time Alt. Az.
23 Oct ? 03:59:00 10° E 04:01:39 15° NE 04:04:18 10° NNE visible
24 Oct ? 04:40:15 10° SE 04:44:24 31° ENE 04:48:33 10° N visible
25 Oct ? 03:48:37 10° ENE 03:50:30 12° NE 03:52:22 10° NNE visible
26 Oct ? 04:29:19 10° ESE 04:33:10 25° ENE 04:37:01 10° N visible
28 Oct ? 04:18:28 10° ESE 04:21:57 21° ENE 04:25:27 10° NNE visible
29 Oct ? 05:00:19 10° SE 05:04:48 44° ENE 05:09:19 10° N visible
30 Oct ? 04:07:44 10° E 04:10:46 17° ENE 04:13:47 10° NNE visible
31 Oct ? 04:49:15 10° SE 04:53:32 35° ENE 04:57:52 10° N visible
01 Nov ? 03:57:10 10° E 03:59:35 14° NE 04:02:01 10° NNE visible
